FENGYUN 1C DEB, 30028

Orbit data source: Space-Track

FENGYUN 1C DEB, 30028 is space debris in SSO originally from a launch on Mon, 10 May 1999 UTC launched from the Taiyaun Space Center, China (TSC). Fengyun 1C debris stems from the Chinese weather satellite Fengyun-1C, which was intentionally destroyed by a Chinese anti-satellite missile in 2007. This event dramatically increased the amount of space debris, with thousands of trackable fragments posing hazards to satellites and human spaceflight. The Fengyun 1C debris cloud has become a focal point in discussions about space sustainability and the need for international regulations to prevent the creation of new debris.

Loading next visibility...
Identifier
30028, 1999-025ND
Orbit
SSO
Country
Flag of CNCN / PRC
Related business
Manufacturer
Unknown
Mission
Spacecraft
Bus & Motor
Unknown
Mass
Unknown
Launch date (UTC)
1999-05-10 (27 years ago)
Launch vehicle
Unknown
Launch site
Taiyaun Space Center, China (TSC)
Object type
Payload
Rocket body
Debris
Shape & HBR
Unknown shape, 0.1 m
Radar Cross Section
Medium (>0.1 m² and <1 m²)

Expand to show TLE details & history
Last TLE update: 11 hours ago

TLE from 11 hours ago
0 FENGYUN 1C DEB
1 30028U 99025ND  26150.94914794  .00003440  00000-0  64051-3 0  9999
2 30028  98.1544 144.3547 0174644  63.5571 326.5528 14.56308625 21843
Epoch: 2026-05-30T22:46Z
TLE epoch observation values (Epoch: 2026-05-30T22:46:46.382Z)
Latitude
28.71423°
Longitude
-90.27385°
Altitude
606.15 km
Speed
7.614 km/s
True Right ascension
09h 19m 30s
True Declination
28° 33' 59"
Sunlit
Object was in daylight at epoch
Visualization orbit readout
Latitude
Unknown
Longitude
Unknown
Altitude
Unknown
Speed
Unknown
Apparent Right ascension
Unknown
Apparent Declination
Unknown
Sunlit
N/A
Visualization observer readout
Local Sidereal Time
19:46:42
Azimuth
Unknown
Elevation
Unknown
Doppler factor
Unknown
Orbital elements
Apogee altitude
825.855 km
Perigee altitude
578.547 km
Semi-major axis
7,080.338 km
Eccentricity
0.01746
Inclination
98.1544°
RAAN
144.3547°
Arg. of periapsis
63.5571°
True anomaly
325.42938°
Mean anomaly
326.5528°
Eccentric anomaly
325.99315°
Mean motion
3.64303 °/min
Orbital period
98.82 mins
BSTAR
0.00064051
Loading maneuver chart data...
Computing Atmospheric mass density...
Loading historical data...
Loading historical data...
Loading historical data...
Loading historical data...
Loading historical data...
Loading historical data...
Loading historical data...

Documentation

Showing up to 5 results
|